Lacrosse 4 Rocket - Orbit

View from above orbital plane
View from above orbital plane
View from above satellite
View from above satellite

Ground track
Ground track

The orbit data is extracted from the following two-line orbital elements,

1 26474U 00047B   13139.84658631  .00002068  00000-0  21167-3 0  3060
2 26474 067.9982 338.5921 0061382 160.0634 200.2925 14.91259161692935
Epoch (UTC): 19 May 2013 20:19:05
Eccentricity: 0.0061382
inclination: 67.9982°
perigee height: 551 km
apogee height: 637 km
right ascension of ascending node: 338.5921°
argument of perigee: 160.0634°
revolutions per day: 14.91259161
mean anomaly at epoch: 200.2925°
orbit number at epoch: 69293

The dashed part of the orbit path shows where the satellite is in the earth's shadow,  

Developed and maintained by Chris Peat, Heavens-Above GmbH. Please read the updated FAQ before sending e-mail. Imprint. DLR